Lapse_Rate
3.5 2.6 3.0 2.8 3.0 3.3 3.2 2.9 2.8 2.8 1.5 1.0 1.1 1.1 1.8 1.8 2.2 3.1 4.1 4.0 4.2 4.2 3.3 2.2 2.2 2.6 2.4 2.7 3.6 3.4 2.9 2.5 2.4 1.7 1.7 2.4 3.6 4.1 4.1 5.0 5.5 5.1 5.3
3.6 3.6 3.5 4.0 4.1 3.3 3.0 2.7 2.6 2.0 1.7 1.1 1.0 1.1 1.1 1.4 1.7 2.9 4.1 4.9 4.3 4.0 4.2 2.4 1.8 2.1 2.0 2.6 3.1 3.5 3.0 2.7 3.4 3.9 3.4 3.3 4.1 4.5 4.4 4.9 5.2 5.7 5.0
3.2 4.1 4.5 3.8 2.7 3.0 2.4 2.7 2.2 2.0 1.6 1.4 1.1 0.9 1.0 1.4 1.6 1.6 1.7 2.3 3.7 3.8 3.4 3.2 2.4 1.9 2.1 2.4 2.9 3.5 4.0 3.2 3.0 4.0 5.3 6.0 6.0 5.9 4.4 5.0 4.4 4.2 3.5
3.9 4.4 4.7 3.8 3.1 2.7 1.9 2.1 2.3 2.1 1.9 1.1 0.5 0.5 0.4 0.9 0.7 0.9 1.1 1.5 3.1 3.1 3.1 3.0 2.6 2.0 2.0 2.4 2.6 4.4 3.8 3.9 3.4 3.2 5.3 5.2 6.2 6.8 5.8 5.3 5.0 4.7 4.3
3.6 4.4 4.2 3.7 3.3 2.2 1.6 1.7 1.9 2.0 1.5 0.9 0.5 -0.2 0.3 -0.1 0.1 0.5 1.0 1.1 1.8 2.8 3.0 2.9 2.3 1.5 1.6 2.0 2.5 2.6 2.9 3.4 3.8 4.2 4.0 4.1 4.4 4.5 6.4 5.8 5.3 4.6 4.0
3.6 3.5 3.4 3.0 2.5 1.6 1.9 1.4 1.8 2.0 1.4 1.0 0.6 0.2 0.1 0.2 0.1 0.2 0.2 0.3 0.9 1.3 2.3 2.6 2.0 2.0 1.7 1.7 2.0 2.4 2.6 3.0 3.3 3.8 4.3 4.9 5.6 5.4 5.8 5.3 4.9 5.1 3.3
2.6 2.6 2.9 2.6 2.4 2.0 2.0 2.2 1.9 2.4 1.6 1.2 1.1 0.8 0.6 0.3 0.4 0.3 0.2 0.7 0.9 1.1 1.2 1.4 1.1 1.1 1.7 2.2 2.2 2.0 2.1 2.6 2.9 3.3 3.8 4.5 4.9 5.4 5.6 5.7 5.3 5.2 4.0
2.8 2.6 2.7 2.4 2.4 2.4 2.1 2.3 1.8 1.9 1.7 1.7 1.7 1.0 0.9 0.2 0.3 0.5 0.5 0.7 1.2 1.3 1.9 1.8 1.9 2.0 2.2 2.3 2.2 1.8 2.0 2.8 2.5 3.2 3.7 3.9 4.2 4.8 5.2 5.8 5.7 5.1 5.4
2.7 2.5 2.4 2.2 2.1 2.1 2.3 1.9 2.0 2.1 1.8 2.0 1.6 1.4 1.1 1.4 1.2 1.5 1.2 1.2 1.8 2.9 2.6 2.3 1.9 2.0 2.1 2.0 1.4 1.2 1.6 1.6 1.9 1.9 2.3 2.8 3.7 4.2 4.4 4.7 5.1 5.5 5.4
3.3 2.9 2.9 2.9 3.0 2.8 2.4 2.0 2.3 2.3 2.1 2.0 1.6 1.8 1.6 1.7 1.6 1.4 1.8 2.0 2.0 2.5 2.3 2.2 2.1 2.0 2.0 1.9 1.7 1.2 1.6 1.7 1.5 2.5 1.9 2.3 2.7 3.0 3.3 3.9 4.4 4.4 4.8
2.6 2.2 2.2 2.5 2.8 2.6 2.0 2.2 2.2 2.5 2.3 2.1 2.2 2.1 2.1 2.3 2.2 1.8 1.8 1.9 2.0 2.1 2.4 2.4 2.3 2.4 2.2 2.0 1.7 1.6 2.3 1.9 1.7 1.8 2.2 2.2 2.2 2.0 2.3 2.8 3.6 4.1 4.1
2.3 2.0 2.0 2.2 2.3 2.2 2.2 2.4 2.5 2.7 2.7 2.6 3.0 2.7 2.2 2.2 2.0 2.0 2.3 2.1 2.1 2.1 2.4 2.3 2.4 2.4 2.3 2.0 1.9 1.7 1.6 1.6 1.5 1.7 1.8 2.3 3.3 1.9 1.7 1.8 2.6 3.2 3.5
3.0 3.4 3.3 2.6 2.1 1.9 2.1 2.4 2.5 2.9 3.1 3.3 3.3 2.8 2.5 2.4 2.3 2.2 2.0 2.1 2.0 2.0 2.0 2.3 2.3 2.4 2.5 2.3 2.2 2.1 1.7 1.5 1.6 1.8 1.9 2.0 2.0 1.8 1.5 1.6 1.6 2.1 3.7
4.1 3.6 2.8 2.5 2.5 2.3 2.7 2.7 2.9 3.0 3.1 3.4 3.2 2.6 2.5 2.4 2.3 2.2 2.1 2.1 2.2 2.2 2.4 2.5 2.6 2.8 2.6 2.7 2.6 2.4 1.7 1.3 1.8 1.8 2.1 2.2 2.3 2.1 1.7 1.7 1.3 1.9 1.0
5.2 4.8 4.1 2.9 2.8 2.9 2.8 2.9 3.3 2.9 3.0 3.3 3.2 2.8 2.7 2.7 2.8 2.7 2.5 2.5 2.6 2.9 2.8 2.8 2.9 2.8 3.0 3.9 3.3 2.7 2.3 1.8 1.4 1.5 2.3 2.7 2.9 3.9 3.7 2.8 1.6 1.2 0.8
5.2 4.7 4.4 3.9 3.4 3.0 4.1 4.0 3.3 3.3 3.2 3.3 3.3 3.4 3.5 3.6 3.4 3.1 3.0 2.9 2.8 2.8 3.1 3.1 3.1 2.8 3.9 5.0 5.9 5.8 2.9 2.6 2.1 1.6 1.7 2.0 3.2 3.5 5.3 5.6 5.3 3.3 1.6
5.1 4.5 3.8 3.5 3.5 3.7 4.3 4.6 4.4 4.0 3.7 3.7 3.9 4.2 4.3 4.2 4.1 4.0 3.8 3.5 3.3 3.2 3.0 2.9 3.0 3.0 2.9 5.1 5.9 6.3 4.2 2.8 1.9 1.6 1.7 2.4 4.0 4.2 3.4 4.3 5.5 5.3 5.6
5.1 4.7 4.1 4.0 4.1 4.1 4.3 4.3 4.9 5.5 5.4 4.8 4.7 5.0 5.2 5.1 5.3 5.4 4.3 3.9 3.6 3.4 3.3 3.1 3.2 3.1 3.7 5.5 6.1 6.3 4.4 3.2 2.4 1.9 1.9 2.0 2.6 2.3 3.1 3.2 2.8 2.3 2.2
5.8 5.8 5.3 5.2 4.5 4.5 4.5 4.9 5.0 4.9 5.3 5.7 6.0 6.1 6.0 6.1 5.6 4.9 4.5 4.1 3.6 3.3 3.2 3.4 3.2 2.8 3.1 4.7 5.4 5.6 3.6 3.1 2.9 3.2 2.1 2.2 2.4 3.9 5.7 4.4 3.5 2.5 2.2
6.4 6.2 6.0 6.2 5.1 4.7 4.7 4.8 4.8 4.7 5.0 5.7 5.6 5.6 5.7 5.3 4.9 4.4 3.9 3.7 3.4 3.8 3.3 3.8 3.0 3.5 3.4 4.4 5.6 5.7 4.0 3.2 3.7 2.8 2.5 4.5 4.9 6.1 6.7 5.3 3.9 3.9 3.1
6.4 6.2 5.6 5.3 5.5 5.5 5.0 4.9 4.6 4.6 5.1 5.0 5.1 5.1 4.9 4.6 4.2 3.9 3.8 4.2 4.0 3.7 3.5 3.6 3.9 2.7 3.4 3.4 5.8 6.5 6.1 5.1 5.5 5.2 4.8 4.5 6.0 6.6 7.1 7.6 5.1 5.2 5.1
6.2 6.1 5.5 5.1 5.1 5.1 5.0 5.1 5.0 5.9 5.5 5.3 5.2 5.2 5.0 5.5 6.6 4.5 5.0 4.6 4.1 3.7 4.1 4.3 4.4 4.8 4.1 5.3 6.3 7.2 7.6 7.8 6.0 5.6 5.7 5.2 7.0 7.3 7.3 7.1 6.9 7.6 8.3
5.4 5.3 4.9 4.6 4.5 4.5 4.5 4.6 5.7 5.3 6.1 5.7 6.0 5.8 5.7 6.2 5.9 4.6 5.2 5.1 5.5 4.4 5.1 5.4 5.6 5.5 5.6 4.1 6.7 8.0 8.3 8.2 7.3 6.5 6.4 7.9 8.2 8.2 8.0 7.5 7.4 7.7 6.7
5.0 5.2 4.9 4.7 4.6 4.6 4.8 4.5 5.2 6.0 6.2 6.3 6.3 6.4 5.5 6.1 6.2 6.4 6.5 5.6 5.6 6.0 6.0 6.1 5.7 5.6 5.5 4.2 4.2 5.1 5.2 6.2 6.2 6.4 5.1 7.1 8.2 8.4 8.1 7.7 6.9 6.3 5.8
4.6 4.9 4.8 4.8 5.2 5.4 5.1 5.3 6.1 5.9 6.2 6.8 7.1 6.9 7.0 6.7 6.8 6.8 6.9 6.9 6.8 6.8 7.0 6.9 6.7 6.4 6.2 6.7 7.7 7.7 7.4 7.1 7.4 8.2 7.6 7.0 6.7 6.9 7.7 7.4 6.0 5.6 5.7
4.1 4.4 4.6 4.8 5.7 5.8 6.0 6.1 5.8 5.7 6.1 6.5 6.8 7.0 7.3 7.3 7.3 7.0 6.9 7.6 8.2 8.5 8.6 8.7 8.6 8.3 8.9 9.2 9.2 9.1 9.0 9.0 9.1 8.2 7.4 7.3 7.8 8.1 7.8 6.6 5.8 5.7 6.4
Wind_Speed
5 8 7 8 8 6 5 4 4 2 3 3 2 3 2 2 2 6 9 7 8 9 8 6 7 8 4 4 5 3 4 3 5 4 6 3 2 6 5 4 4 5 7
6 7 7 6 4 5 5 5 5 5 3 2 1 1 1 2 1 4 6 10 10 7 6 6 4 5 4 5 5 4 3 2 4 3 2 4 4 5 5 4 4 6 6
9 6 6 6 5 5 4 5 5 5 4 4 2 3 2 3 3 3 3 7 11 9 8 9 7 5 4 4 4 4 4 3 3 5 2 3 2 5 3 6 4 8 5
6 6 6 5 5 4 4 5 5 5 4 5 5 4 2 1 1 1 2 4 12 11 11 10 9 6 4 5 3 4 2 2 3 3 3 1 2 3 4 3 3 8 8
9 8 8 7 5 5 4 4 5 4 3 5 5 3 2 1 1 2 5 6 7 9 9 11 8 5 4 4 5 5 4 2 1 1 2 2 2 1 2 5 5 6 7
8 8 7 7 6 4 4 4 5 3 4 4 4 5 3 2 2 2 3 3 3 3 7 9 8 7 5 4 4 3 4 3 3 2 2 1 1 3 2 3 3 4 4
8 8 8 7 6 6 5 4 5 3 3 3 3 3 3 3 2 1 1 3 3 2 5 5 5 3 6 6 5 4 4 4 3 3 3 2 2 2 2 2 3 2 3
7 7 7 7 7 7 7 5 6 4 3 2 1 2 3 1 1 0 0 1 1 3 4 5 7 8 8 7 6 3 3 3 4 5 4 3 3 2 2 2 1 3 2
7 9 8 8 7 7 7 7 5 4 4 3 2 2 2 1 1 2 1 1 2 3 4 4 4 6 6 6 5 3 5 4 4 5 4 3 3 3 2 2 2 2 2
6 7 7 7 6 6 6 5 4 5 4 4 3 3 3 2 2 2 3 2 3 3 5 5 5 6 5 5 5 4 4 5 4 4 6 4 3 4 3 2 2 2 3
8 8 8 8 8 7 7 7 6 5 5 4 3 3 3 3 3 3 3 3 3 3 4 4 4 4 5 5 4 5 4 6 5 5 4 6 5 4 4 3 2 2 2
9 7 8 8 8 8 7 7 6 5 5 4 3 3 4 3 3 3 4 3 4 4 4 5 4 5 5 5 5 5 5 5 6 6 5 6 4 6 4 3 4 2 3
9 8 5 7 8 8 7 7 7 7 5 4 3 3 4 3 4 4 4 4 4 5 5 4 5 5 5 5 5 3 5 6 6 6 6 6 5 5 3 3 4 3 2
8 7 8 7 6 6 7 7 7 7 6 5 4 4 5 5 5 5 4 4 4 5 5 5 6 6 6 5 5 4 5 5 5 6 6 6 6 6 6 4 5 4 4
9 8 8 8 7 4 5 6 5 6 5 5 3 6 5 5 5 5 5 5 5 5 6 6 6 6 5 4 6 5 5 5 6 6 6 6 7 9 8 3 4 3 3
7 8 9 11 9 7 2 3 4 6 5 5 5 5 5 5 5 5 6 6 6 6 6 6 6 7 5 9 11 8 6 6 6 7 7 7 9 9 12 11 11 8 4
6 8 8 7 8 9 7 4 2 1 3 4 5 5 5 6 6 6 6 7 7 6 7 7 6 7 7 13 13 13 5 6 6 6 6 7 6 8 6 10 11 9 10
6 7 7 7 8 7 7 6 6 6 5 5 6 6 6 6 6 6 6 7 5 6 6 7 7 7 7 14 15 15 7 6 7 7 7 7 9 8 7 7 7 7 6
5 4 5 5 7 8 7 6 7 6 6 7 6 6 5 5 5 6 7 6 5 6 6 6 8 8 9 16 17 14 6 6 9 9 7 7 8 15 17 7 8 7 9
2 4 5 3 5 6 6 7 7 6 7 8 8 6 5 5 6 7 7 6 6 7 6 8 7 11 9 16 19 15 4 7 8 7 7 15 12 16 18 8 7 8 11
4 5 5 5 6 6 6 6 7 7 7 6 6 6 7 7 7 7 6 8 9 8 9 9 9 7 10 11 20 20 10 6 7 6 7 6 15 16 15 16 6 10 8
4 5 4 5 6 6 6 7 7 9 8 8 8 7 8 8 7 7 9 9 8 9 10 10 9 8 9 15 16 19 18 16 7 8 6 7 16 18 18 15 17 19 14
5 5 5 7 7 7 6 8 10 8 11 9 10 10 10 10 8 7 10 8 9 7 9 7 8 9 7 5 16 20 18 16 9 5 8 15 17 19 16 20 21 19 8
6 4 6 7 8 7 8 8 10 10 10 12 11 8 7 10 8 8 8 8 8 8 8 8 8 8 6 6 5 6 6 12 9 9 7 11 15 18 15 12 10 5 5
6 6 7 7 9 9 9 9 11 8 9 11 10 10 8 10 10 10 9 9 10 9 10 9 8 9 9 10 15 14 9 7 9 13 8 7 6 7 8 8 8 7 6
7 7 8 8 11 9 11 11 9 7 9 11 10 9 9 9 9 9 10 16 18 21 22 23 18 12 18 22 22 22 21 22 23 11 9 9 9 12 11 9 9 8 10
Wind_Direction
126 107 102 106 107 110 116 138 118 47 56 28 16 22 3 335 1 9 3 16 3 357 358 357 349 348 350 328 336 328 340 332 349 342 326 339 42 39 14 10 12 331 339
113 106 108 97 88 122 120 94 82 66 58 68 56 148 256 300 323 353 359 354 359 6 9 5 346 344 344 346 347 352 335 325 5 350 304 357 334 353 334 359 354 9 341
146 142 133 128 120 106 110 98 87 80 64 48 37 15 23 17 14 0 353 354 16 17 20 17 5 348 353 339 339 354 18 329 324 355 269 355 341 327 319 335 1 354 346
143 154 152 144 143 131 114 107 95 90 71 60 67 80 109 56 319 333 336 358 13 22 36 16 5 355 346 349 336 354 336 4 335 335 11 33 257 321 321 342 346 356 334
155 157 154 152 160 139 140 128 108 92 85 83 94 92 79 61 327 8 16 359 0 18 16 7 0 353 353 347 350 346 347 329 305 291 319 314 309 231 275 306 327 322 323
144 143 147 146 147 160 151 147 134 111 93 94 98 116 117 91 52 12 12 351 349 350 356 356 353 343 340 344 330 322 331 316 302 289 286 249 282 302 287 291 307 302 309
155 158 163 171 175 177 179 157 144 134 128 135 135 137 119 108 118 74 13 5 345 334 335 347 349 340 338 338 338 336 332 318 307 289 276 253 252 239 255 271 293 302 298
166 175 185 188 191 188 186 172 162 173 168 164 169 145 124 135 165 59 45 339 303 295 314 345 352 347 347 346 348 332 325 330 322 311 297 279 281 268 235 236 247 315 298
187 195 200 199 193 183 188 181 181 190 190 198 187 169 160 151 260 317 323 298 301 301 328 336 341 339 342 352 355 350 339 344 335 319 315 298 285 278 266 248 203 187 291
213 211 206 194 197 192 189 184 192 200 209 208 199 203 211 213 243 262 260 269 292 314 326 328 331 335 341 351 2 349 341 358 338 330 337 328 309 311 295 273 258 217 205
222 210 204 200 193 188 184 193 201 209 211 206 211 213 239 255 280 290 279 278 289 303 312 314 314 326 335 342 350 341 336 344 331 324 326 317 319 317 317 298 269 261 201
260 218 204 198 193 190 191 196 201 212 218 207 208 234 242 260 275 279 287 303 310 314 313 320 324 329 333 338 339 330 332 332 326 314 318 306 316 318 316 316 297 263 263
25 19 325 246 205 196 190 194 195 200 190 192 216 259 265 260 257 272 285 299 300 298 309 317 317 317 316 319 318 301 321 319 312 307 303 295 304 302 300 305 299 283 279
23 8 358 328 246 215 197 192 195 184 179 188 222 255 265 261 252 262 274 283 287 294 301 298 295 294 299 291 299 284 305 308 302 302 300 292 283 276 285 285 290 293 302
25 10 357 354 0 277 228 193 186 180 179 187 231 259 269 267 274 284 289 288 286 282 288 293 295 290 289 276 281 265 277 294 299 296 296 290 275 270 260 245 265 271 277
20 10 11 11 4 359 291 275 193 197 185 196 231 262 278 278 277 279 278 282 283 284 285 286 278 285 279 275 280 275 260 265 270 288 291 287 288 287 285 278 261 231 230
24 15 6 3 2 3 352 350 275 278 218 234 257 266 271 271 271 271 277 275 272 269 277 277 275 273 274 279 278 277 256 257 256 258 273 287 276 270 270 276 278 274 273
19 8 1 353 355 349 358 1 5 355 342 312 293 281 265 268 265 267 271 279 276 275 272 272 269 268 272 275 278 279 267 255 257 252 251 255 278 267 258 250 252 250 251
13 2 352 349 348 355 354 353 348 341 330 321 309 289 274 276 287 284 278 274 271 275 263 259 269 261 268 270 273 276 258 252 256 261 245 242 254 271 280 245 248 258 265
2 341 339 339 341 323 337 336 323 327 316 311 306 306 294 284 285 278 274 264 250 259 256 264 256 260 266 273 280 279 249 252 260 261 249 262 264 277 285 270 234 248 260
0 354 352 328 309 318 329 317 308 297 276 272 277 281 271 261 255 259 262 270 270 268 268 266 271 259 262 272 280 283 279 256 261 254 263 261 270 280 282 286 255 244 250
337 328 325 314 303 304 307 293 288 283 283 277 273 266 260 261 267 259 272 274 272 270 272 273 275 271 263 265 273 277 276 273 255 254 248 249 266 272 278 282 277 281 263
311 314 308 302 298 293 287 289 290 286 290 282 281 275 272 267 260 256 266 273 269 264 273 269 271 275 274 256 268 278 284 293 295 290 261 267 269 267 272 275 280 283 271
276 262 283 285 283 276 276 257 278 283 288 289 286 282 267 273 267 266 260 255 261 271 273 273 269 270 271 268 266 269 284 289 287 282 278 279 279 270 267 274 276 265 244
263 261 262 266 270 274 271 271 275 278 283 288 289 287 283 281 281 275 267 260 260 257 272 272 269 269 271 271 270 270 270 265 261 276 273 271 266 263 268 264 256 249 251
256 267 265 262 274 278 277 278 273 265 274 283 286 281 279 280 279 278 278 266 266 272 272 275 274 276 277 281 283 283 284 283 282 278 267 265 268 272 270 264 267 262 259